,,Stat6,,Stat2,,Stat8,,Stat9,,Stat10,,Wind1,,Wind1,
time,status,PA1M_AVG,status,PR1M_SUM,status,RH1M_AVG,status,SR1M_AVG,status,TA1M_AVG,status,W1dAve1m,status,W1sAve1m,
2008-09-16, 00:00:00,VALID,919.333,VALID,0,VALID,100,VALID,-0.0169808,VALID,18.4661,VALID,37,VALID,0.10119,
2008-09-16, 00:01:00,VALID,919.316,VALID,0,VALID,100,VALID,-0.0339617,VALID,18.4601,VALID,37,VALID,0,
2008-09-16, 00:02:00,VALID,919.297,VALID,0,VALID,100,VALID,0,VALID,18.4571,VALID,37,VALID,0,
2008-09-16, 00:03:00,VALID,919.278,VALID,0,VALID,100,VALID,-0.118866,VALID,18.4351,VALID,46,VALID,0,
2008-09-16, 00:04:00,VALID,919.268,VALID,0,VALID,100,VALID,-0.135847,VALID,18.4518,VALID,53,VALID,0,
2008-09-16, 00:05:00,VALID,919.257,VALID,0,VALID,100,VALID,-0.118866,VALID,18.4513,VALID,53,VALID,0,
2008-09-16, 00:06:00,VALID,919.234,VALID,0,VALID,100,VALID,-0.135847,VALID,18.4381,VALID,53,VALID,0,
2008-09-16, 00:07:00,VALID,919.217,VALID,0,VALID,100,VALID,-0.118866,VALID,18.4643,VALID,53,VALID,0,
2008-09-16, 00:08:00,VALID,919.199,VALID,0,VALID,100,VALID,-0.169808,VALID,18.4643,VALID,53,VALID,0,
2008-09-16, 00:09:00,VALID,919.19,VALID,0,VALID,100,VALID,-0.169808,VALID,18.4708,VALID,53,VALID,0,
2008-09-16, 00:10:00,VALID,919.186,VALID,0,VALID,100,VALID,-0.186789,VALID,18.4777,VALID,53,VALID,0,
2008-09-16, 00:11:00,VALID,919.168,VALID,0,VALID,100,VALID,-0.135847,VALID,18.4907,VALID,53,VALID,0,
2008-09-16, 00:12:00,VALID,919.175,VALID,0,VALID,100,VALID,-0.169808,VALID,18.5037,VALID,53,VALID,0,
2008-09-16, 00:13:00,VALID,919.171,VALID,0,VALID,100,VALID,-0.152827,VALID,18.5132,VALID,53,VALID,0,
2008-09-16, 00:14:00,VALID,919.172,VALID,0,VALID,100,VALID,-0.135847,VALID,18.5229,VALID,53,VALID,0,
2008-09-16, 00:15:00,VALID,919.144,VALID,0,VALID,100,VALID,-0.152827,VALID,18.5192,VALID,107,VALID,0,
2008-09-16, 00:16:00,VALID,919.133,VALID,0,VALID,100,VALID,-0.152827,VALID,18.5127,VALID,157,VALID,0,
2008-09-16, 00:17:00,VALID,919.124,VALID,0,VALID,100,VALID,-0.118866,VALID,18.5222,VALID,168,VALID,0,
2008-09-16, 00:18:00,VALID,919.112,VALID,0,VALID,100,VALID,-0.101885,VALID,18.5294,VALID,172,VALID,0,
2008-09-16, 00:19:00,VALID,919.085,VALID,0,VALID,100,VALID,-0.118866,VALID,18.5231,VALID,172,VALID,0.00136719,
2008-09-16, 00:20:00,VALID,919.069,VALID,0,VALID,100,VALID,-0.101885,VALID,18.509,VALID,157,VALID,0,
2008-09-16, 00:21:00,VALID,919.05,VALID,0,VALID,100,VALID,-0.0849042,VALID,18.4967,VALID,159,VALID,0,
2008-09-16, 00:22:00,VALID,919.048,VALID,0,VALID,100,VALID,-0.101885,VALID,18.4675,VALID,168,VALID,0,
2008-09-16, 00:23:00,VALID,919.046,VALID,0,VALID,100,VALID,-0.118866,VALID,18.4548,VALID,167,VALID,0,
2008-09-16, 00:24:00,VALID,919.048,VALID,0,VALID,100,VALID,-0.101885,VALID,18.4346,VALID,163,VALID,0,
2008-09-16, 00:25:00,VALID,919.044,VALID,0,VALID,100,VALID,-0.101885,VALID,18.4349,VALID,161,VALID,0.0678943,
2008-09-16, 00:26:00,VALID,919.049,VALID,0,VALID,100,VALID,-0.101885,VALID,18.4309,VALID,160,VALID,0.00130208,
2008-09-16, 00:27:00,VALID,919.034,VALID,0,VALID,100,VALID,-0.118866,VALID,18.4221,VALID,159,VALID,0,
2008-09-16, 00:28:00,VALID,919.04,VALID,0,VALID,100,VALID,-0.118866,VALID,18.4221,VALID,159,VALID,0,
2008-09-16, 00:29:00,VALID,919.023,VALID,0,VALID,100,VALID,-0.101885,VALID,18.4122,VALID,169,VALID,0,
2008-09-16, 00:30:00,VALID,919.017,VALID,0,VALID,100,VALID,-0.118866,VALID,18.4024,VALID,173,VALID,0,
2008-09-16, 00:31:00,VALID,918.99,VALID,0,VALID,100,VALID,-0.118866,VALID,18.3994,VALID,173,VALID,0,
2008-09-16, 00:32:00,VALID,918.973,VALID,0,VALID,100,VALID,-0.0849042,VALID,18.3932,VALID,173,VALID,0,
2008-09-16, 00:33:00,VALID,918.956,VALID,0,VALID,100,VALID,0,VALID,18.3913,VALID,176,VALID,0,
2008-09-16, 00:34:00,VALID,918.957,VALID,0,VALID,100,VALID,0,VALID,18.3846,VALID,176,VALID,0,
2008-09-16, 00:35:00,VALID,918.944,VALID,0,VALID,100,VALID,-0.0509425,VALID,18.3915,VALID,176,VALID,0.000173611,
2008-09-16, 00:36:00,VALID,918.942,VALID,0,VALID,100,VALID,-0.0339617,VALID,18.3786,VALID,176,VALID,0.203526,
2008-09-16, 00:37:00,VALID,918.941,VALID,0,VALID,100,VALID,0,VALID,18.3723,VALID,176,VALID,0.0131392,
2008-09-16, 00:38:00,VALID,918.936,VALID,0,VALID,100,VALID,-0.0169808,VALID,18.3686,VALID,176,VALID,0,
2008-09-16, 00:39:00,VALID,918.939,VALID,0,VALID,100,VALID,-0.0509425,VALID,18.3755,VALID,176,VALID,0,
2008-09-16, 00:40:00,VALID,918.952,VALID,0,VALID,100,VALID,-0.0169808,VALID,18.3725,VALID,177,VALID,0,
2008-09-16, 00:41:00,VALID,918.934,VALID,0,VALID,100,VALID,-0.0339617,VALID,18.3721,VALID,200,VALID,0.0712652,
2008-09-16, 00:42:00,VALID,918.932,VALID,0,VALID,100,VALID,0,VALID,18.3978,VALID,207,VALID,0,
2008-09-16, 00:43:00,VALID,918.901,VALID,0,VALID,100,VALID,-0.0339617,VALID,18.398,VALID,200,VALID,0.279447,
2008-09-16, 00:44:00,VALID,918.876,VALID,0,VALID,100,VALID,-0.0169808,VALID,18.3943,VALID,199,VALID,0.701758,
2008-09-16, 00:45:00,VALID,918.861,VALID,0,VALID,100,VALID,-0.0339617,VALID,18.3948,VALID,198,VALID,0.701257,
2008-09-16, 00:46:00,VALID,918.842,VALID,0,VALID,100,VALID,-0.0169808,VALID,18.4013,VALID,198,VALID,0.427401,
2008-09-16, 00:47:00,VALID,918.826,VALID,0,VALID,100,VALID,-0.0509425,VALID,18.4115,VALID,198,VALID,0.455669,
2008-09-16, 00:48:00,VALID,918.802,VALID,0,VALID,100,VALID,-0.118866,VALID,18.4054,VALID,198,VALID,0.232329,
2008-09-16, 00:49:00,VALID,918.779,VALID,0,VALID,100,VALID,-0.169808,VALID,18.4189,VALID,198,VALID,0,
2008-09-16, 00:50:00,VALID,918.762,VALID,0,VALID,100,VALID,-0.135847,VALID,18.4254,VALID,198,VALID,0,
2008-09-16, 00:51:00,VALID,918.737,VALID,0,VALID,100,VALID,-0.118866,VALID,18.4418,VALID,198,VALID,0,
2008-09-16, 00:52:00,VALID,918.712,VALID,0,VALID,100,VALID,-0.118866,VALID,18.4448,VALID,198,VALID,0,
2008-09-16, 00:53:00,VALID,918.704,VALID,0,VALID,100,VALID,-0.118866,VALID,18.4349,VALID,198,VALID,0,
2008-09-16, 00:54:00,VALID,918.687,VALID,0,VALID,100,VALID,-0.152827,VALID,18.4284,VALID,198,VALID,0,
2008-09-16, 00:55:00,VALID,918.67,VALID,0,VALID,100,VALID,-0.135847,VALID,18.4286,VALID,198,VALID,0,
2008-09-16, 00:56:00,VALID,918.67,VALID,0,VALID,100,VALID,-0.118866,VALID,18.4191,VALID,198,VALID,0,
2008-09-16, 00:57:00,VALID,918.663,VALID,0,VALID,100,VALID,-0.152827,VALID,18.4161,VALID,198,VALID,0,
2008-09-16, 00:58:00,VALID,918.634,VALID,0,VALID,100,VALID,-0.135847,VALID,18.4031,VALID,197,VALID,0.0569741,
2008-09-16, 00:59:00,VALID,918.625,VALID,0,VALID,100,VALID,-0.101885,VALID,18.3964,VALID,160,VALID,0.275484,
2008-09-16, 01:00:00,VALID,918.604,VALID,0,VALID,100,VALID,-0.0339617,VALID,18.3913,VALID,159,VALID,0,
2008-09-16, 01:01:00,VALID,918.58,VALID,0,VALID,100,VALID,-0.0339617,VALID,18.4115,VALID,159,VALID,0,
2008-09-16, 01:02:00,VALID,918.547,VALID,0,VALID,100,VALID,-0.0169808,VALID,18.4045,VALID,159,VALID,0,
2008-09-16, 01:03:00,VALID,918.542,VALID,0,VALID,100,VALID,-0.0169808,VALID,18.4112,VALID,159,VALID,0.0192708,
2008-09-16, 01:04:00,VALID,918.526,VALID,0,VALID,100,VALID,-0.0339617,VALID,18.4307,VALID,159,VALID,0.0786458,
2008-09-16, 01:05:00,VALID,918.509,VALID,0,VALID,100,VALID,-0.0169808,VALID,18.4244,VALID,178,VALID,0.00111607,
2008-09-16, 01:06:00,VALID,918.511,VALID,0,VALID,100,VALID,-0.0169808,VALID,18.4172,VALID,172,VALID,0.0565476,
2008-09-16, 01:07:00,VALID,918.485,VALID,0,VALID,100,VALID,-0.0169808,VALID,18.408,VALID,137,VALID,0,
2008-09-16, 01:08:00,VALID,918.478,VALID,0,VALID,100,VALID,-0.0339617,VALID,18.3853,VALID,121,VALID,0.262355,
2008-09-16, 01:09:00,VALID,918.462,VALID,0,VALID,100,VALID,0,VALID,18.3521,VALID,133,VALID,0.137091,
2008-09-16, 01:10:00,VALID,918.44,VALID,0,VALID,100,VALID,0,VALID,18.3399,VALID,139,VALID,0.95476,
2008-09-16, 01:11:00,VALID,918.43,VALID,0,VALID,100,VALID,-0.0169808,VALID,18.3135,VALID,138,VALID,0.77798,
2008-09-16, 01:12:00,VALID,918.424,VALID,0,VALID,100,VALID,-0.0509425,VALID,18.2968,VALID,133,VALID,0.378239,
2008-09-16, 01:13:00,VALID,918.41,VALID,0,VALID,100,VALID,-0.0339617,VALID,18.2838,VALID,131,VALID,0.601744,
2008-09-16, 01:14:00,VALID,918.379,VALID,0,VALID,100,VALID,-0.0169808,VALID,18.2743,VALID,132,VALID,0.914595,
2008-09-16, 01:15:00,VALID,918.358,VALID,0,VALID,100,VALID,0,VALID,18.2715,VALID,135,VALID,0.86059,
2008-09-16, 01:16:00,VALID,918.351,VALID,0,VALID,100,VALID,-0.0339617,VALID,18.2618,VALID,134,VALID,0.827939,
2008-09-16, 01:17:00,VALID,918.328,VALID,0,VALID,100,VALID,-0.0169808,VALID,18.2683,VALID,137,VALID,0.188988,
2008-09-16, 01:18:00,VALID,918.313,VALID,0,VALID,100,VALID,-0.0509425,VALID,18.2685,VALID,136,VALID,0.182478,
2008-09-16, 01:19:00,VALID,918.304,VALID,0,VALID,100,VALID,0,VALID,18.2648,VALID,136,VALID,0.851563,
2008-09-16, 01:20:00,VALID,918.285,VALID,0,VALID,100,VALID,-0.0509425,VALID,18.278,VALID,142,VALID,0.30888,
2008-09-16, 01:21:00,VALID,918.265,VALID,0,VALID,100,VALID,-0.0169808,VALID,18.2741,VALID,138,VALID,0.763529,
2008-09-16, 01:22:00,VALID,918.246,VALID,0,VALID,100,VALID,-0.0679233,VALID,18.2878,VALID,140,VALID,1.10461,
2008-09-16, 01:23:00,VALID,918.23,VALID,0,VALID,100,VALID,0,VALID,18.297,VALID,135,VALID,0.724609,
2008-09-16, 01:24:00,VALID,918.226,VALID,0,VALID,100,VALID,-0.0169808,VALID,18.2935,VALID,127,VALID,1.10547,
2008-09-16, 01:25:00,VALID,918.213,VALID,0,VALID,100,VALID,0,VALID,18.31,VALID,122,VALID,0.811612,
2008-09-16, 01:26:00,VALID,918.179,VALID,0,VALID,100,VALID,0.0169808,VALID,18.3067,VALID,139,VALID,1.06321,
2008-09-16, 01:27:00,VALID,918.16,VALID,0,VALID,100,VALID,0.0169808,VALID,18.3063,VALID,138,VALID,1.29762,
2008-09-16, 01:28:00,VALID,918.148,VALID,0,VALID,100,VALID,0.0339617,VALID,18.3162,VALID,139,VALID,1.18862,
2008-09-16, 01:29:00,VALID,918.139,VALID,0,VALID,100,VALID,0,VALID,18.316,VALID,142,VALID,0.296705,
2008-09-16, 01:30:00,VALID,918.139,VALID,0,VALID,100,VALID,0,VALID,18.3327,VALID,144,VALID,0.973264,
2008-09-16, 01:31:00,VALID,918.115,VALID,0,VALID,100,VALID,0,VALID,18.3461,VALID,143,VALID,1.25629,
2008-09-16, 01:32:00,VALID,918.106,VALID,0,VALID,100,VALID,-0.0339617,VALID,18.3561,VALID,142,VALID,1.28125,
2008-09-16, 01:33:00,VALID,918.089,VALID,0,VALID,100,VALID,-0.118866,VALID,18.367,VALID,145,VALID,1.45117,
2008-09-16, 01:34:00,VALID,918.083,VALID,0,VALID,100,VALID,-0.118866,VALID,18.3698,VALID,141,VALID,1.28181,
2008-09-16, 01:35:00,VALID,918.069,VALID,0,VALID,100,VALID,-0.118866,VALID,18.3827,VALID,129,VALID,1.00941,
2008-09-16, 01:36:00,VALID,918.067,VALID,0,VALID,100,VALID,-0.135847,VALID,18.3797,VALID,141,VALID,0.729651,
2008-09-16, 01:37:00,VALID,918.052,VALID,0,VALID,100,VALID,-0.135847,VALID,18.383,VALID,125,VALID,1.22408,
2008-09-16, 01:38:00,VALID,918.037,VALID,0,VALID,100,VALID,-0.135847,VALID,18.3869,VALID,125,VALID,0.99201,
2008-09-16, 01:39:00,VALID,918.025,VALID,0,VALID,100,VALID,-0.152827,VALID,18.3698,VALID,108,VALID,0.757622,
2008-09-16, 01:40:00,VALID,918.021,VALID,0,VALID,100,VALID,-0.101885,VALID,18.3769,VALID,119,VALID,0.903773,
2008-09-16, 01:41:00,VALID,917.995,VALID,0,VALID,100,VALID,-0.0849042,VALID,18.3637,VALID,116,VALID,0.853659,
2008-09-16, 01:42:00,VALID,917.986,VALID,0,VALID,100,VALID,-0.118866,VALID,18.351,VALID,130,VALID,1.10338,
2008-09-16, 01:43:00,VALID,917.983,VALID,0,VALID,100,VALID,-0.101885,VALID,18.3473,VALID,126,VALID,1.04033,
2008-09-16, 01:44:00,VALID,917.969,VALID,0,VALID,100,VALID,-0.118866,VALID,18.3239,VALID,139,VALID,1.23418,
2008-09-16, 01:45:00,VALID,917.969,VALID,0,VALID,100,VALID,-0.118866,VALID,18.3308,VALID,143,VALID,1.65476,
2008-09-16, 01:46:00,VALID,917.957,VALID,0,VALID,100,VALID,-0.118866,VALID,18.3241,VALID,137,VALID,1.00145,
2008-09-16, 01:47:00,VALID,917.967,VALID,0,VALID,100,VALID,-0.118866,VALID,18.3473,VALID,150,VALID,1.20406,
2008-09-16, 01:48:00,VALID,917.977,VALID,0,VALID,100,VALID,-0.118866,VALID,18.3535,VALID,156,VALID,1.05191,
2008-09-16, 01:49:00,VALID,917.975,VALID,0,VALID,100,VALID,-0.101885,VALID,18.3563,VALID,149,VALID,0.912326,
2008-09-16, 01:50:00,VALID,917.955,VALID,0,VALID,100,VALID,-0.118866,VALID,18.3663,VALID,162,VALID,1.0181,
2008-09-16, 01:51:00,VALID,917.959,VALID,0,VALID,100,VALID,-0.0849042,VALID,18.3695,VALID,157,VALID,1.33891,
2008-09-16, 01:52:00,VALID,917.942,VALID,0,VALID,100,VALID,-0.101885,VALID,18.3693,VALID,147,VALID,1.34877,
2008-09-16, 01:53:00,VALID,917.944,VALID,0,VALID,100,VALID,-0.101885,VALID,18.3566,VALID,140,VALID,1.37954,
2008-09-16, 01:54:00,VALID,917.951,VALID,0,VALID,100,VALID,-0.118866,VALID,18.3471,VALID,142,VALID,1.61777,
2008-09-16, 01:55:00,VALID,917.958,VALID,0,VALID,100,VALID,-0.101885,VALID,18.3566,VALID,157,VALID,1.13742,
2008-09-16, 01:56:00,VALID,917.952,VALID,0,VALID,100,VALID,-0.118866,VALID,18.3533,VALID,147,VALID,1.49237,
2008-09-16, 01:57:00,VALID,917.959,VALID,0,VALID,100,VALID,-0.101885,VALID,18.3596,VALID,155,VALID,1.33079,
2008-09-16, 01:58:00,VALID,917.956,VALID,0,VALID,100,VALID,-0.135847,VALID,18.3762,VALID,143,VALID,1.20685,
2008-09-16, 01:59:00,VALID,917.965,VALID,0,VALID,100,VALID,-0.118866,VALID,18.3897,VALID,127,VALID,1.29688,
2008-09-16, 02:00:00,VALID,917.969,VALID,0,VALID,100,VALID,-0.135847,VALID,18.3765,VALID,114,VALID,0.749467,
2008-09-16, 02:01:00,VALID,917.961,VALID,0,VALID,100,VALID,-0.101885,VALID,18.373,VALID,127,VALID,1.32236,
2008-09-16, 02:02:00,VALID,917.964,VALID,0,VALID,100,VALID,-0.118866,VALID,18.3596,VALID,129,VALID,1.44073,
2008-09-16, 02:03:00,VALID,917.955,VALID,0,VALID,100,VALID,0,VALID,18.3484,VALID,122,VALID,1.16749,
2008-09-16, 02:04:00,VALID,917.942,VALID,0,VALID,100,VALID,-0.0169808,VALID,18.3591,VALID,132,VALID,1.17708,
2008-09-16, 02:05:00,VALID,917.935,VALID,0,VALID,100,VALID,0,VALID,18.3387,VALID,125,VALID,1.19826,
2008-09-16, 02:06:00,VALID,917.934,VALID,0,VALID,100,VALID,0,VALID,18.3357,VALID,117,VALID,1.16983,
2008-09-16, 02:07:00,VALID,917.929,VALID,0,VALID,100,VALID,0,VALID,18.3387,VALID,131,VALID,0.363867,
2008-09-16, 02:08:00,VALID,917.915,VALID,0,VALID,100,VALID,0,VALID,18.326,VALID,125,VALID,1.04219,
2008-09-16, 02:09:00,VALID,917.915,VALID,0,VALID,100,VALID,0,VALID,18.3128,VALID,125,VALID,0.851381,
2008-09-16, 02:10:00,VALID,917.897,VALID,0,VALID,100,VALID,0.0169808,VALID,18.3193,VALID,122,VALID,0.950921,
2008-09-16, 02:11:00,VALID,917.886,VALID,0,VALID,100,VALID,0.0169808,VALID,18.303,VALID,112,VALID,1.04207,
2008-09-16, 02:12:00,VALID,917.865,VALID,0,VALID,100,VALID,-0.0169808,VALID,18.3003,VALID,129,VALID,1.20385,
2008-09-16, 02:13:00,VALID,917.862,VALID,0,VALID,100,VALID,0,VALID,18.2935,VALID,128,VALID,1.16158,
2008-09-16, 02:14:00,VALID,917.854,VALID,0,VALID,100,VALID,0,VALID,18.2838,VALID,136,VALID,1.11604,
2008-09-16, 02:15:00,VALID,917.848,VALID,0,VALID,100,VALID,0,VALID,18.2771,VALID,128,VALID,1.07195,
2008-09-16, 02:16:00,VALID,917.853,VALID,0,VALID,100,VALID,0,VALID,18.2739,VALID,133,VALID,1.06741,
2008-09-16, 02:17:00,VALID,917.849,VALID,0,VALID,100,VALID,0.0169808,VALID,18.2736,VALID,134,VALID,0.782986,
2008-09-16, 02:18:00,VALID,917.852,VALID,0,VALID,100,VALID,-0.101885,VALID,18.2789,VALID,131,VALID,0.985102,
2008-09-16, 02:19:00,VALID,917.847,VALID,0,VALID,100,VALID,-0.118866,VALID,18.2688,VALID,129,VALID,1.15117,
2008-09-16, 02:20:00,VALID,917.838,VALID,0,VALID,100,VALID,-0.101885,VALID,18.2722,VALID,130,VALID,1.20827,
2008-09-16, 02:21:00,VALID,917.833,VALID,0,VALID,100,VALID,-0.101885,VALID,18.2887,VALID,135,VALID,1.06806,
2008-09-16, 02:22:00,VALID,917.82,VALID,0,VALID,100,VALID,-0.0849042,VALID,18.281,VALID,136,VALID,1.01762,
2008-09-16, 02:23:00,VALID,917.806,VALID,0,VALID,100,VALID,-0.0849042,VALID,18.2882,VALID,136,VALID,1.49769,
2008-09-16, 02:24:00,VALID,917.793,VALID,0,VALID,100,VALID,-0.0679233,VALID,18.2845,VALID,132,VALID,1.40718,
2008-09-16, 02:25:00,VALID,917.784,VALID,0,VALID,100,VALID,-0.0679233,VALID,18.282,VALID,135,VALID,1.20028,
2008-09-16, 02:26:00,VALID,917.771,VALID,0,VALID,100,VALID,-0.0679233,VALID,18.2817,VALID,143,VALID,1.15293,
2008-09-16, 02:27:00,VALID,917.775,VALID,0,VALID,100,VALID,-0.0849042,VALID,18.2817,VALID,137,VALID,1.45241,
2008-09-16, 02:28:00,VALID,917.755,VALID,0,VALID,100,VALID,-0.101885,VALID,18.2787,VALID,143,VALID,1.23586,
2008-09-16, 02:29:00,VALID,917.734,VALID,0,VALID,100,VALID,-0.101885,VALID,18.2817,VALID,149,VALID,0.981957,
2008-09-16, 02:30:00,VALID,917.741,VALID,0,VALID,100,VALID,-0.101885,VALID,18.2854,VALID,138,VALID,1.19648,
2008-09-16, 02:31:00,VALID,917.742,VALID,0,VALID,100,VALID,-0.101885,VALID,18.2752,VALID,142,VALID,1.16797,
2008-09-16, 02:32:00,VALID,917.729,VALID,0,VALID,100,VALID,-0.0849042,VALID,18.2882,VALID,137,VALID,0.829883,
2008-09-16, 02:33:00,VALID,917.729,VALID,0,VALID,100,VALID,-0.101885,VALID,18.2783,VALID,149,VALID,0.85766,
2008-09-16, 02:34:00,VALID,917.712,VALID,0,VALID,100,VALID,-0.101885,VALID,18.2884,VALID,148,VALID,0.99201,
2008-09-16, 02:35:00,VALID,917.698,VALID,0,VALID,100,VALID,-0.101885,VALID,18.2852,VALID,150,VALID,1.59319,
2008-09-16, 02:36:00,VALID,917.693,VALID,0,VALID,100,VALID,-0.0679233,VALID,18.2817,VALID,148,VALID,1.30396,
2008-09-16, 02:37:00,VALID,917.671,VALID,0,VALID,100,VALID,-0.101885,VALID,18.2722,VALID,146,VALID,1.50454,
2008-09-16, 02:38:00,VALID,917.655,VALID,0,VALID,100,VALID,-0.118866,VALID,18.272,VALID,144,VALID,1.08259,
2008-09-16, 02:39:00,VALID,917.645,VALID,0,VALID,100,VALID,-0.118866,VALID,18.2884,VALID,141,VALID,1.22057,
2008-09-16, 02:40:00,VALID,917.643,VALID,0,VALID,100,VALID,-0.135847,VALID,18.2852,VALID,147,VALID,1.24428,
2008-09-16, 02:41:00,VALID,917.635,VALID,0,VALID,100,VALID,-0.101885,VALID,18.2917,VALID,146,VALID,0.765244,
2008-09-16, 02:42:00,VALID,917.635,VALID,0,VALID,100,VALID,-0.118866,VALID,18.2915,VALID,153,VALID,0.913021,
2008-09-16, 02:43:00,VALID,917.625,VALID,0,VALID,100,VALID,-0.118866,VALID,18.2947,VALID,154,VALID,0.988021,
2008-09-16, 02:44:00,VALID,917.622,VALID,0,VALID,100,VALID,-0.101885,VALID,18.3109,VALID,143,VALID,1.06641,
2008-09-16, 02:45:00,VALID,917.613,VALID,0,VALID,100,VALID,-0.101885,VALID,18.3206,VALID,143,VALID,1.28555,
2008-09-16, 02:46:00,VALID,917.605,VALID,0,VALID,100,VALID,-0.101885,VALID,18.3276,VALID,145,VALID,1.43979,
2008-09-16, 02:47:00,VALID,917.593,VALID,0,VALID,100,VALID,-0.118866,VALID,18.3373,VALID,144,VALID,1.17896,
2008-09-16, 02:48:00,VALID,917.582,VALID,0,VALID,100,VALID,-0.0849042,VALID,18.3267,VALID,141,VALID,1.17359,
2008-09-16, 02:49:00,VALID,917.578,VALID,0,VALID,100,VALID,-0.0849042,VALID,18.3202,VALID,134,VALID,0.898619,
2008-09-16, 02:50:00,VALID,917.568,VALID,0,VALID,100,VALID,-0.0509425,VALID,18.3162,VALID,140,VALID,1.01953,
2008-09-16, 02:51:00,VALID,917.564,VALID,0,VALID,100,VALID,-0.0509425,VALID,18.3267,VALID,143,VALID,0.792696,
2008-09-16, 02:52:00,VALID,917.548,VALID,0,VALID,100,VALID,-0.0679233,VALID,18.3299,VALID,143,VALID,0.919017,
2008-09-16, 02:53:00,VALID,917.541,VALID,0,VALID,100,VALID,-0.0169808,VALID,18.3362,VALID,143,VALID,0.161086,
2008-09-16, 02:54:00,VALID,917.519,VALID,0,VALID,100,VALID,-0.0849042,VALID,18.3329,VALID,144,VALID,0.0857515,
2008-09-16, 02:55:00,VALID,917.508,VALID,0,VALID,100,VALID,-0.0849042,VALID,18.3359,VALID,143,VALID,0,
2008-09-16, 02:56:00,VALID,917.494,VALID,0,VALID,100,VALID,-0.0849042,VALID,18.3394,VALID,142,VALID,0,
2008-09-16, 02:57:00,VALID,917.499,VALID,0,VALID,100,VALID,-0.0679233,VALID,18.3433,VALID,142,VALID,0,
2008-09-16, 02:58:00,VALID,917.467,VALID,0,VALID,100,VALID,-0.0849042,VALID,18.3204,VALID,139,VALID,0,
2008-09-16, 02:59:00,VALID,917.455,VALID,0,VALID,100,VALID,-0.0339617,VALID,18.3167,VALID,138,VALID,0.759375,
2008-09-16, 03:00:00,VALID,917.425,VALID,0.2,VALID,100,VALID,-0.0509425,VALID,18.3107,VALID,149,VALID,0.988477,
2008-09-16, 03:01:00,VALID,917.41,VALID,0,VALID,100,VALID,-0.0679233,VALID,18.3239,VALID,143,VALID,0.941592,
2008-09-16, 03:02:00,VALID,917.398,VALID,0,VALID,100,VALID,-0.0849042,VALID,18.3301,VALID,142,VALID,0.578125,
2008-09-16, 03:03:00,VALID,917.381,VALID,0,VALID,100,VALID,-0.0849042,VALID,18.3107,VALID,143,VALID,0.720424,
2008-09-16, 03:04:00,VALID,917.357,VALID,0,VALID,100,VALID,-0.0509425,VALID,18.2871,VALID,149,VALID,0.158155,
2008-09-16, 03:05:00,VALID,917.355,VALID,0,VALID,100,VALID,-0.0679233,VALID,18.2912,VALID,153,VALID,0.259233,
2008-09-16, 03:06:00,VALID,917.344,VALID,0,VALID,100,VALID,-0.0849042,VALID,18.2785,VALID,147,VALID,0.876999,
2008-09-16, 03:07:00,VALID,917.347,VALID,0,VALID,100,VALID,-0.0169808,VALID,18.2741,VALID,152,VALID,0.920673,
2008-09-16, 03:08:00,VALID,917.331,VALID,0,VALID,100,VALID,0,VALID,18.2813,VALID,150,VALID,0.554874,
2008-09-16, 03:09:00,VALID,917.323,VALID,0,VALID,100,VALID,-0.0679233,VALID,18.2878,VALID,147,VALID,0.759266,
2008-09-16, 03:10:00,VALID,917.303,VALID,0,VALID,100,VALID,-0.0509425,VALID,18.2875,VALID,140,VALID,1.09091,
2008-09-16, 03:11:00,VALID,917.289,VALID,0,VALID,100,VALID,-0.0509425,VALID,18.294,VALID,136,VALID,1.14688,
2008-09-16, 03:12:00,VALID,917.273,VALID,0,VALID,100,VALID,-0.0509425,VALID,18.3005,VALID,141,VALID,1.58239,
2008-09-16, 03:13:00,VALID,917.241,VALID,0,VALID,100,VALID,-0.0679233,VALID,18.3105,VALID,141,VALID,1.50206,
2008-09-16, 03:14:00,VALID,917.221,VALID,0,VALID,100,VALID,-0.0509425,VALID,18.3165,VALID,141,VALID,1.29724,
2008-09-16, 03:15:00,VALID,917.204,VALID,0,VALID,100,VALID,-0.0509425,VALID,18.3234,VALID,142,VALID,1.38415,
2008-09-16, 03:16:00,VALID,917.185,VALID,0,VALID,100,VALID,-0.0849042,VALID,18.3137,VALID,138,VALID,1.41465,
2008-09-16, 03:17:00,VALID,917.162,VALID,0,VALID,100,VALID,-0.0509425,VALID,18.3102,VALID,140,VALID,1.28049,
2008-09-16, 03:18:00,VALID,917.152,VALID,0,VALID,100,VALID,0.0169808,VALID,18.3056,VALID,138,VALID,1.27689,
2008-09-16, 03:19:00,VALID,917.151,VALID,0,VALID,100,VALID,0.0169808,VALID,18.316,VALID,135,VALID,1.24947,
2008-09-16, 03:20:00,VALID,917.132,VALID,0,VALID,100,VALID,0.0169808,VALID,18.3056,VALID,132,VALID,1.23642,
2008-09-16, 03:21:00,VALID,917.113,VALID,0,VALID,100,VALID,0.0509425,VALID,18.2961,VALID,119,VALID,1.36875,
2008-09-16, 03:22:00,VALID,917.114,VALID,0,VALID,100,VALID,0.0849042,VALID,18.2961,VALID,109,VALID,1.14882,
2008-09-16, 03:23:00,VALID,917.095,VALID,0,VALID,100,VALID,0.0339617,VALID,18.2829,VALID,111,VALID,0.661585,
2008-09-16, 03:24:00,VALID,917.079,VALID,0,VALID,100,VALID,0.0339617,VALID,18.2699,VALID,115,VALID,0.0761719,
2008-09-16, 03:25:00,VALID,917.066,VALID,0,VALID,100,VALID,0.0169808,VALID,18.2706,VALID,106,VALID,0.000976563,
2008-09-16, 03:26:00,VALID,917.048,VALID,0,VALID,100,VALID,0.0509425,VALID,18.2637,VALID,98,VALID,0.790865,
2008-09-16, 03:27:00,VALID,917.048,VALID,0,VALID,100,VALID,0.0679233,VALID,18.2632,VALID,114,VALID,0.962358,
2008-09-16, 03:28:00,VALID,917.036,VALID,0,VALID,100,VALID,0.0339617,VALID,18.2634,VALID,116,VALID,1.16761,
2008-09-16, 03:29:00,VALID,917.024,VALID,0,VALID,100,VALID,0.0339617,VALID,18.2701,VALID,116,VALID,1.10884,
2008-09-16, 03:30:00,VALID,917.024,VALID,0,VALID,100,VALID,0.0849042,VALID,18.2732,VALID,119,VALID,1.06907,
2008-09-16, 03:31:00,VALID,917.021,VALID,0,VALID,100,VALID,0.0679233,VALID,18.2864,VALID,120,VALID,1.19606,
2008-09-16, 03:32:00,VALID,917.009,VALID,0,VALID,100,VALID,0,VALID,18.2866,VALID,114,VALID,1.00799,
2008-09-16, 03:33:00,VALID,917.007,VALID,0,VALID,100,VALID,-0.0339617,VALID,18.2808,VALID,114,VALID,0.94798,
2008-09-16, 03:34:00,VALID,917.008,VALID,0,VALID,100,VALID,-0.0339617,VALID,18.2815,VALID,117,VALID,0.446221,
2008-09-16, 03:35:00,VALID,917.003,VALID,0,VALID,100,VALID,-0.0679233,VALID,18.2588,VALID,120,VALID,0,
2008-09-16, 03:36:00,VALID,916.996,VALID,0,VALID,100,VALID,-0.101885,VALID,18.2456,VALID,116,VALID,0,
2008-09-16, 03:37:00,VALID,916.978,VALID,0,VALID,100,VALID,-0.0169808,VALID,18.2426,VALID,118,VALID,0,
2008-09-16, 03:38:00,VALID,916.957,VALID,0,VALID,100,VALID,-0.0679233,VALID,18.2291,VALID,112,VALID,0,
2008-09-16, 03:39:00,VALID,916.961,VALID,0,VALID,100,VALID,-0.0849042,VALID,18.2254,VALID,104,VALID,0.589258,
2008-09-16, 03:40:00,VALID,916.967,VALID,0,VALID,100,VALID,-0.0849042,VALID,18.2196,VALID,121,VALID,0.772236,
2008-09-16, 03:41:00,VALID,916.966,VALID,0,VALID,100,VALID,-0.101885,VALID,18.2201,VALID,123,VALID,1.16191,